www.pogodaiklimat.ru

Погода и климат >> Архив погоды >> Россия >> Якутия >> Нюрба


ПОГОДА в Нюрбе

  • Прогноз погоды в Нюрбе
  • Монитор погоды в Нюрбе
  • Климат города

АРХИВ ПОГОДЫ в Нюрбе

Время (UTC), дата Ветер
(напр.,м/с)
 
Видим.   Явления Облачность Т
(С)
Тd
(С)
f
(%)
Тe
(С)
Тes
(С)
Комфортность P
(гПа)
Po
(гПа)
Тmin
(С)
Tmax
(С)
R
(мм)
S
(см)
00 19.03 ЮЗ 2 20 км слабый снег 10/0
[As trans Cs]
-9.2 -11.2 85 -14 -13 1025.9 1010.2 -10.0 0.2 33
03 19.03 ЮЗ 3 50 км {снег} 4/0
[Ci fib]
-4.3 -8.5 72 -9 -6 1025.4 1010.0
06 19.03 ЮЗ 4 50 км {снег} 4/4 600 м
[Sc]
-1.2 -8.3 58 -6 -5 1025.5 1010.3
09 19.03 З 2 50 км 3/3 600 м
[Sc]
-1.5 -9.2 56 -5 -4 1026.3 1011.1
12 19.03 ЮЗ 2 50 км ясно -5.6 -9.4 75 -10 -10 1028.1 1012.6 -0.7 0.0
15 19.03 З 1 50 км ясно -9.7 -12.3 81 -12 -12 1028.9 1013.1
18 19.03 ЮЗ 1 50 км ясно -13.2 -15.2 85 -16 -16 1029.3 1013.3
21 19.03 ЮЗ 2 50 км ясно -13.4 -15.4 85 -18 -18 1029.8 1013.8
00 20.03 З 2 50 км 10/0
[As trans Cs]
-13.9 -15.9 85 -19 -18 1030.6 1014.6 -14.5 33
03 20.03 ЮЗ 1 50 км 10/0
[Cs]
-6.3 -10.3 73 -8 -4 1030.8 1015.2
06 20.03 ЮЗ 2 50 км 10/0
[Ci fib]
+1.6 -7.2 52 -1 +2 1029.7 1014.5
09 20.03 З 2 50 км 10/0
[Ci fib]
+3.0 -7.5 46 +1 +1 1028.8 1013.7
12 20.03 З 1 50 км 4/0
[Ci fib]
-6.5 -9.7 78 -9 -9 1029.1 1013.5 +3.9
15 20.03 З 1 50 км 4/0
[Ci fib]
-10.1 -12.1 85 1028.9 1013.1
18 20.03 З 2 50 км 4/0
[Ci fib]
-11.4 -12.7 90 -16 -16 1028.5 1012.6
21 20.03 ЮЗ 2 50 км 3/0
[Ci fib]
-13.3 -14.6 90 1028.3 1012.4
00 21.03 ЮЗ 2 50 км 3/0
[Ci fib]
-12.6 -14.6 85 -17 -16 1028.8 1012.8 -14.0 32
03 21.03 ЮЗ 2 50 км 3/0
[Ci fib]
+4.1 -9.5 36 +2 +6 1028.0 1012.6
06 21.03 З 3 50 км ясно +1.4 -7.8 50 -2 +1 1026.4 1011.3
09 21.03 З 2 50 км ясно +3.3 -7.0 47 +1 +2 1025.3 1010.3
12 21.03 З 1 50 км 4/0
[Ci fib]
-1.5 -8.7 58 -3 -3 1025.9 1010.7 +3.9
15 21.03 З 3 50 км 4/0
[Ci fib]
-7.4 -10.4 79 -13 -13 1026.3 1010.7
18 21.03 ЮЗ 2 50 км 4/0
[Ci fib]
-9.4 -11.9 82 -14 -14 1025.6 1009.9
21 21.03 З 3 50 км 6/0
[Ac trans Ci fib]
-8.9 -11.3 83 -15 -15 1025.2 1009.5
00 22.03 З 2 50 км 4/0
[Ci fib]
-6.9 -10.6 75 -11 -10 1025.1 1009.5 -10.9 32
03 22.03 З 4 50 км 6/0
[Ac trans Ci fib]
-1.3 -8.4 58 -7 -4 1024.7 1009.5
06 22.03 З 3 50 км 6/3 600 м
[Sc Ac trans Ci fib]
+2.0 -7.3 50 -2 0 1024.0 1009.0
09 22.03 С 4 50 км 10/3 600 м
[Sc As trans Cs]
+1.9 -6.2 55 -3 -2 1024.2 1009.2
12 22.03 штиль 0 50 км 10/0
[As trans Cs]
-2.1 -6.7 71 -3 -3 1024.9 1009.7 +2.8
15 22.03 З 1 50 км 5/0
[Ci fib]
-6.8 -8.8 86 -9 -9 1025.4 1009.8
18 22.03 ЮЗ 1 50 км 4/0
[Ci fib]
-7.8 -10.9 78 -10 -10 1025.1 1009.5
21 22.03 ЮЗ 1 50 км 10/0
[Ac trans Ci fib]
-9.5 -12.1 81 -12 -12 1025.1 1009.4
00 23.03 ЮЗ 2 50 км 10/0
[Ac trans Ci fib]
-7.8 -10.0 84 -12 -12 1024.9 1009.3 -9.9 31
03 23.03 ЮЗ 1 50 км 10/0
[Ac trans Ci fib]
-1.3 -6.8 66 -3 0 1023.5 1008.3
06 23.03 ЮЗ 2 50 км 10/4 600 м
[Cb cap Ci fib]
+2.6 -5.6 55 0 +2 1021.6 1006.7
09 23.03 ЮЗ 2 50 км 10/4 600 м
[Cb cap Ac trans Ci fib]
+1.6 -5.2 61 -1 -1 1021.2 1006.2
12 23.03 штиль 0 50 км {ливн. осадки} 10/0
[Ac trans Ci fib]
-3.7 -5.9 85 -5 -22 1021.3 1006.0 -3.4 0.0
15 23.03 штиль 0 50 км 5/0
[Ci fib]
-7.6 -8.5 93 -8 -8 1020.9 1005.4
18 23.03 ЮЗ 1 50 км 3/0
[Ci fib]
-9.7 -10.5 94 -12 -12 1021.0 1005.4
21 23.03 ЮЗ 1 50 км 3/0
[Ci fib]
-11.9 -13.2 90 -14 -14 1020.3 1004.5
00 24.03 ЮЗ 1 50 км 5/0
[Ci fib]
-10.5 -11.8 90 -13 -11 1019.7 1004.0 -13.6 30
03 24.03 З 2 50 км 8/0
[Ci fib]
-2.3 -8.2 64 -6 -2 1018.8 1003.5
06 24.03 З 3 50 км 3/0
[Ci fib]
+2.7 -7.1 48 -1 +3 1017.2 1002.3
09 24.03 СЗ 1 50 км 5/0
[Ac trans Ci fib]
+3.1 -8.8 41 +2 +3 1017.5 1002.6
12 24.03 штиль 0 50 км 5/0
[Ac trans Ci fib]
-5.0 -9.9 68 -6 -6 1018.5 1003.1 +4.3
15 24.03 З 1 50 км 4/0
[Ci fib]
-7.8 -11.9 72 -10 -10 1019.1 1003.6
18 24.03 ЮЗ 1 50 км 4/0
[Ci fib]
-9.2 -12.2 79 -11 -11 1019.4 1003.8
21 24.03 ЮЗ 2 50 км 4/0
[Ac trans Ci fib]
-11.7 -13.0 90 -16 -16 1020.0 1004.2
00 25.03 ЮЗ 3 50 км 3/0
[Ci fib]
-10.3 -11.6 90 -16 -15 1020.5 1004.8 -12.3 29
03 25.03 ЮЗ 3 50 км 3/0
[Ci fib]
-10.3 -11.6 90 -16 -12 1020.5 1004.8 -12.3 29
06 25.03 ЮЗ 4 50 км 10/0
[Ci fib]
+1.5 -6.3 56 -3 -1 1018.9 1003.9
09 25.03 ЮЗ 4 50 км 10/0
[As trans Cs]
+1.9 -6.2 55 -3 -2 1017.6 1002.7
12 25.03 ЮЗ 3 50 км 10/0
[As trans Cs]
-2.2 -8.5 62 -7 -7 1017.7 1002.5 +2.0
15 25.03 ЮЗ 2 50 км 10/0
[As trans Cs]
-4.3 -9.4 68 -8 -8 1016.8 1001.5
18 25.03 З 4 50 км 10/0
[Cs]
-6.5 -10.5 73 -13 -13 1015.9 1000.5
21 25.03 ЮЗ 2 50 км 6/0
[Ci fib]
-8.9 -11.8 79 -13 -13 1016.0 1000.5

 

Местоположение метеостанции Нюрба (Якутия, Россия): широта 63.28 долгота 118.30 высота над уровнем моря 119 м.

В архиве по умолчанию представлена погода в Нюрбе за последнюю неделю. Архивные данные за месяц целиком и за предыдущие месяцы, начиная с января 2011 года, Вы можете получить, выбрав интересующий диапазон дат из раскрывающегося списка и нажав кнопку "Ввод!".

Внимание! Время в таблицах - всемирное. Для получения местного времени необходимо прибавить поправку, которая в Нюрбе равна 9 ч.

Смотрите также архив погоды в соседних городах и на ближайших метеорологических станциях:

Погода в Верхневилюйске (Якутия, Россия) (97 км)
Погода в Чумпуруке (Якутия, Россия) (126 км)
Погода в Сунтаре (Якутия, Россия) (129 км)
Погода в Крестяхе (Якутия, Россия) (159 км)
Погода в Вилюйске (Якутия, Россия) (172 км)
Погода в Мирном (Якутия, Россия) (243 км)
Погода в Килиере (Якутия, Россия) (264 км)
Погода в Дорожном (Якутия, Россия) (265 км)
Погода в Чернышевском (Якутия, Россия) (298 км)
Погода в Эйке (Якутия, Россия) (309 км)

Пояснения к столбцам:

Ветер - указаны скорость ветра в м/с - средняя за 10 мин, порывы в срок и между сроками (в фигурных скобках) и направление, откуда дует ветер: С - северный, СВ - северо-восточный, В - восточный, ЮВ - юго-восточный, Ю - южный, ЮЗ - юго-западный, З - западный, СЗ - северо-западный.
Видимость - горизонтальная дальность видимости в метрах или километрах. При видимости от 1 до 10 км при отсутствии осадков обычно наблюдается дымка, при ухудшении видимости до 1 км и менее - туман. В сухую погоду видимость может ухудшаться дымом, пылью или мглою.
Явления - указаны атмосферные явления, наблюдавшиеся в срок или в последний час перед сроком; фигурными скобками обозначены явления, наблюдавшиеся между сроками (за 1-3 часа до срока); квадратными скобками обозначены град или гололедные отложения с указанием их диаметра в мм.
Облачность - указаны через наклонную черту общая и нижняя облачность в баллах и высота нижней границы облаков в метрах; квадратными скобками обозначены формы облаков: Ci - перистые, Cs - перисто-слоистые, Cc - перисто-кучевые, Ac - высококучевые, As - высокослоистые, Sc - слоисто-кучевые, Ns - слоисто-дождевые, Cu - кучевые, Cb - кучево-дождевые. Подробнее классификацию облаков см. в Атласе облаков (PDF).
T - Температура воздуха - температура, измеренная на высоте 2 м над землей.
Td - Температура точки росы - температура, при понижении до которой содержащийся в воздухе водяной пар достигнет насыщения.
f - Относительная влажность воздуха - влажноcть воздуха, измеренная на высоте 2 м над землей.
Te - Эффективная температура - температура, которую ощущает одетый по сезону человек в тени. Характеристика душности погоды. При расчете учитывается влияние влажности воздуха и скорости ветра на теплоощущения человека.
Tes - Эффективная температура на солнце - температура, которую ощущает человек, с поправкой на солнечный нагрев. Характеристика знойности погоды. Зависит от высоты солнца над горизонтом, облачности и скорости ветра. Ночью, в пасмурную погоду, а также при ветре 12 м/с и более поправка равна нулю.
P - Атмосферное давление - приведенное к уровню моря атмосферное давление.
Po - Атмосферное давление - измеренное на уровне метеостанции атмосферное давление.
Tmin - Минимальная температура - минимум температуры воздуха на высоте 2 м над землей.
Tmax - Максимальная температура - максимум температуры воздуха на высоте 2 м над землей.
R - Количество осадков - Количество выпавших осадков, мм. При наведении курсора мыши на число - период времени, за который выпало указанное количество осадков.
S - Снежный покров - Высота снежного покрова, см. При наведении курсора мыши на число - состояние снежного покрова и степень покрытия местности в баллах.